SCP
0 0 0 0 0 0 0 0 0 0 0 -0 0 -0 0 0 0 0 0 0 0 0 0 0 0 0 0 0 0 0 0 0
0 0 0 0 0 0 0 0 0 0 0 0 0 0 0 0 0 0 0 0 0 0 0 0 0 0 0 0 0 0 0 0
0 0 0 0 0 0 0 0 0 0 0 0 0 0 0 0 0 0 0 0 0 0 0 0 0 0 0 0 0 0 0 0
0 0 0 0 0 0 0 0 0 0 0 0 0 0 0 0 0 0 0 0 0 0 0 0 0 0 0 0 0 0 0 0
0 0 0 0 0 0 0 0 0 0 0 0 0 0 0 0 0 0 0 0 0 0 0 0 0 0 0 0 0 0 0 0
0 0 0 0 0 0 0 0 0 0 0 0 0 0 0 0 0 0 0 0 0 0 0 0 0 0 0 0 0 0 0 0
0 0 0 0 0 0 0 0 0 0 0 0 0 0 0 0 0 0 0 0 0 0 0 0 0 0 0 0 0 0 0 0
0 0 0 0 0 0 0 0 0 0 0 0 0 0 0 0 0 0 0 0 0 0 0 0 0 0 0 0 0 0 0 0
0 0 0 0 0 0 0 0 0 0 0 0 0 0 0 0 0 0 0 0 0 0 0 0 0 0 0 0 0 0 0 0
0 0 0 0 0 0 0 0 0 0 0 0 0 0 0 0 0 0 0 0 0 0 0 0 0 0 0 0 0 0 0 0
0 0 0 0 0 0 0 0 0 0 0 0 0 0 0 0 0 0 0 0 0 0 0 0 0 0 0 0 0 -0 0 0
0 0 0 0 0 0 0 0 0 0 0 0 0 0 0 0 0 0 0 0 0 0 0 0 0 0 0 0 0 0 -0 0
0 0 0 0 0 0 0 0 0 0 0 0 0 0 0 0 0 0 0 0 -0 -0 0 0 0 0 0 0 0 -0 0 0
0 0 0 0 0 0 0 0 0 0 0 0 0 0 0 0 0 0 -0 -0 0 -0 0 0 0 0 0 0 0 0 0 0
0 0 0 0 0 0 0 0 0 0 0 0 0 0 0 0 0 0 0 0 0 0 0 0 0 0 0 -0 -0 0 0 -0
0 0 0 0 0 0 0 0 0 0 0 0 0 0 0 0 0 0 0 0 0 -0 -0 0 -0 0 0 0 0 0 0 0
0 0 0 0 0 0 0 0 0 0 0 0 0 0 0 0 0 0 0 0 0 0 0 0 0 -0 0 0 0 0 0 0
0 0 0 0 0 0 0 0 0 0 0 0 0 0 0 0 0 0 0 0 0 0 0 0 0 0 0 0 0 0 0 0
0 0 0 0 0 0 0 0 0 0 0 0 0 0 0 0 0 0 0 0 0 0 0 0 0 0 0 0 0 0 0 0
0 0 0 0 0 0 0 0 0 0 0 0 0 0 0 0 0 0 0 0 0 0 0 0 0 0 0 0 0 0 0 0
Wind_Speed_500mb
27 30 30 31 28 26 28 28 26 25 26 27 27 31 31 31 32 33 33 33 35 35 34 36 36 38 38 40 41 45 50 49
28 29 28 25 25 29 29 30 31 34 33 32 31 33 38 39 38 33 29 28 26 25 27 29 32 33 34 40 45 40 46 50
28 27 27 30 33 30 29 26 30 34 32 32 34 39 46 47 47 42 29 26 26 27 28 27 23 23 27 34 41 46 47 43
27 25 28 28 26 25 23 23 28 30 32 34 38 44 50 58 59 50 29 24 23 25 23 19 18 21 24 27 29 32 38 38
22 22 20 15 17 19 20 18 24 28 30 33 37 44 51 58 61 42 24 27 30 26 29 25 20 28 31 38 40 40 39 32
16 15 10 8 11 16 19 21 26 30 30 34 38 44 47 54 42 32 25 26 31 29 27 28 31 30 34 43 41 33 29 30
10 5 4 8 17 25 27 28 29 32 35 38 44 47 51 44 37 33 30 30 32 32 31 33 33 34 34 32 33 32 28 25
2 6 12 17 17 22 25 28 30 35 42 52 56 53 43 37 34 36 36 34 36 39 39 37 32 30 29 31 31 29 30 26
5 11 16 17 21 22 25 28 35 46 55 57 44 40 38 33 33 33 32 32 31 29 27 28 27 27 28 28 29 28 24 24
4 9 17 17 16 18 23 34 44 51 47 46 47 46 40 42 37 37 31 29 31 32 28 25 27 32 30 30 29 28 27 23
4 11 12 10 14 23 34 43 47 43 47 50 45 42 39 36 42 41 38 31 29 30 31 28 26 28 28 28 31 31 26 23
3 6 9 16 24 31 41 46 39 41 49 51 47 43 42 45 41 43 39 31 29 29 29 28 27 29 30 24 22 23 24 23
4 9 14 20 27 37 41 35 32 41 48 50 45 42 34 39 39 39 34 31 35 26 22 17 13 21 16 13 13 18 17 18
5 10 15 24 33 40 33 32 35 38 47 47 41 41 36 37 37 31 30 32 40 32 19 9 5 6 9 16 18 16 13 10
2 7 17 29 37 36 27 32 37 41 41 44 42 37 35 33 33 28 36 35 35 37 30 20 21 16 13 8 10 11 7 5
4 9 21 31 36 29 26 34 35 40 37 40 39 36 36 30 25 32 29 31 32 33 37 23 24 12 18 17 12 5 1 9
1 11 24 31 28 24 26 32 35 36 38 33 36 36 33 29 19 19 21 23 26 23 25 23 33 30 27 21 21 25 24 22
2 14 23 28 24 21 25 31 34 33 39 34 35 34 33 31 23 20 18 21 21 21 21 19 21 26 26 27 32 29 30 28
4 15 22 25 23 19 23 27 30 31 34 32 30 30 33 30 26 21 22 21 20 18 19 16 11 17 22 27 28 27 26 23
5 14 21 20 16 18 21 23 26 30 28 25 29 33 36 29 30 21 24 23 21 18 19 15 7 11 13 16 19 19 16 13
Wind_Direction_500mb
92 88 80 70 60 51 40 38 34 30 19 19 11 9 6 351 338 332 325 315 301 294 288 282 284 279 274 272 261 258 256 250
89 86 78 73 57 49 44 41 37 32 25 20 16 9 4 355 348 333 321 315 310 306 298 295 287 285 285 275 274 275 266 254
94 84 82 72 60 47 40 34 29 24 11 1 353 351 350 350 347 340 315 303 299 300 302 303 306 306 295 286 284 281 278 280
97 94 85 72 58 51 43 35 22 10 5 357 352 348 347 344 343 341 307 285 294 299 298 302 314 325 325 318 309 301 297 295
101 95 92 72 46 35 20 11 1 354 349 344 340 340 338 340 339 336 317 286 279 277 280 278 291 315 311 309 307 299 297 291
113 105 89 41 9 357 353 342 339 338 334 332 331 331 333 336 327 326 311 299 301 284 280 283 292 297 304 306 308 299 291 286
129 107 28 347 346 332 323 321 323 330 329 327 326 327 328 329 319 315 307 295 288 289 291 294 295 300 307 306 307 297 288 284
183 349 332 321 307 312 304 316 322 328 330 331 331 333 336 336 325 314 310 304 292 288 288 287 289 294 296 298 303 295 288 275
266 305 310 308 310 310 310 320 330 334 336 339 344 345 342 340 332 325 313 305 302 297 291 288 289 293 294 298 296 298 289 274
293 295 323 323 315 321 334 339 340 343 348 349 345 347 348 345 342 336 317 305 296 295 296 304 296 300 291 295 294 295 292 281
292 321 327 332 338 346 348 345 348 356 355 352 353 352 353 349 346 343 340 330 313 305 293 291 300 300 297 288 291 286 287 286
276 337 352 2 357 351 346 346 355 359 357 357 354 353 351 353 348 350 350 345 334 318 310 293 280 299 307 293 288 286 289 293
317 12 6 357 348 346 349 356 1 357 359 359 358 355 348 352 359 1 9 18 360 347 329 313 292 295 299 313 309 291 288 287
311 350 356 347 346 351 358 4 356 355 359 1 1 0 359 359 10 19 17 19 17 19 22 37 25 341 340 325 316 303 278 286
309 356 347 346 348 356 3 359 358 0 3 4 2 3 6 7 15 35 24 22 29 26 29 48 13 5 329 4 9 338 283 260
89 350 350 346 351 1 358 356 358 360 0 4 9 10 11 10 29 23 21 18 19 23 24 25 36 41 36 49 40 355 178 106
282 351 344 348 351 355 358 358 357 356 359 359 7 9 7 11 9 10 4 1 10 11 23 33 33 36 45 51 53 85 97 109
13 346 350 353 352 352 354 355 357 6 358 353 353 358 4 2 3 5 1 6 10 13 13 16 31 44 38 63 75 80 87 87
348 348 350 352 350 353 351 355 360 4 355 5 14 11 9 8 6 12 17 14 8 7 11 13 35 56 67 59 75 77 77 78
326 349 344 349 354 358 357 359 3 358 7 19 19 14 13 20 25 24 17 10 3 2 4 21 69 64 63 73 62 57 55 58
Wind_Speed_850mb
27 30 30 31 28 26 28 28 26 25 26 27 27 31 31 31 32 33 33 33 35 35 34 36 36 38 38 40 41 45 50 49
28 29 28 25 25 29 29 30 31 34 33 32 31 33 38 39 38 33 29 28 26 25 27 29 32 33 34 40 45 40 46 50
28 27 27 30 33 30 29 26 30 34 32 32 34 39 46 47 47 42 29 26 26 27 28 27 23 23 27 34 41 46 47 43
27 25 28 28 26 25 23 23 28 30 32 34 38 44 50 58 59 50 29 24 23 25 23 19 18 21 24 27 29 32 38 38
22 22 20 15 17 19 20 18 24 28 30 33 37 44 51 58 61 42 24 27 30 26 29 25 20 28 31 38 40 40 39 32
16 15 10 8 11 16 19 21 26 30 30 34 38 44 47 54 42 32 25 26 31 29 27 28 31 30 34 43 41 33 29 30
10 5 4 8 17 25 27 28 29 32 35 38 44 47 51 44 37 33 30 30 32 32 31 33 33 34 34 32 33 32 28 25
2 6 12 17 17 22 25 28 30 35 42 52 56 53 43 37 34 36 36 34 36 39 39 37 32 30 29 31 31 29 30 26
5 11 16 17 21 22 25 28 35 46 55 57 44 40 38 33 33 33 32 32 31 29 27 28 27 27 28 28 29 28 24 24
4 9 17 17 16 18 23 34 44 51 47 46 47 46 40 42 37 37 31 29 31 32 28 25 27 32 30 30 29 28 27 23
4 11 12 10 14 23 34 43 47 43 47 50 45 42 39 36 42 41 38 31 29 30 31 28 26 28 28 28 31 31 26 23
3 6 9 16 24 31 41 46 39 41 49 51 47 43 42 45 41 43 39 31 29 29 29 28 27 29 30 24 22 23 24 23
4 9 14 20 27 37 41 35 32 41 48 50 45 42 34 39 39 39 34 31 35 26 22 17 13 21 16 13 13 18 17 18
5 10 15 24 33 40 33 32 35 38 47 47 41 41 36 37 37 31 30 32 40 32 19 9 5 6 9 16 18 16 13 10
2 7 17 29 37 36 27 32 37 41 41 44 42 37 35 33 33 28 36 35 35 37 30 20 21 16 13 8 10 11 7 5
4 9 21 31 36 29 26 34 35 40 37 40 39 36 36 30 25 32 29 31 32 33 37 23 24 12 18 17 12 5 1 9
1 11 24 31 28 24 26 32 35 36 38 33 36 36 33 29 19 19 21 23 26 23 25 23 33 30 27 21 21 25 24 22
2 14 23 28 24 21 25 31 34 33 39 34 35 34 33 31 23 20 18 21 21 21 21 19 21 26 26 27 32 29 30 28
4 15 22 25 23 19 23 27 30 31 34 32 30 30 33 30 26 21 22 21 20 18 19 16 11 17 22 27 28 27 26 23
5 14 21 20 16 18 21 23 26 30 28 25 29 33 36 29 30 21 24 23 21 18 19 15 7 11 13 16 19 19 16 13
Wind_Direction_850mb
92 88 80 70 60 51 40 38 34 30 19 19 11 9 6 351 338 332 325 315 301 294 288 282 284 279 274 272 261 258 256 250
89 86 78 73 57 49 44 41 37 32 25 20 16 9 4 355 348 333 321 315 310 306 298 295 287 285 285 275 274 275 266 254
94 84 82 72 60 47 40 34 29 24 11 1 353 351 350 350 347 340 315 303 299 300 302 303 306 306 295 286 284 281 278 280
97 94 85 72 58 51 43 35 22 10 5 357 352 348 347 344 343 341 307 285 294 299 298 302 314 325 325 318 309 301 297 295
101 95 92 72 46 35 20 11 1 354 349 344 340 340 338 340 339 336 317 286 279 277 280 278 291 315 311 309 307 299 297 291
113 105 89 41 9 357 353 342 339 338 334 332 331 331 333 336 327 326 311 299 301 284 280 283 292 297 304 306 308 299 291 286
129 107 28 347 346 332 323 321 323 330 329 327 326 327 328 329 319 315 307 295 288 289 291 294 295 300 307 306 307 297 288 284
183 349 332 321 307 312 304 316 322 328 330 331 331 333 336 336 325 314 310 304 292 288 288 287 289 294 296 298 303 295 288 275
266 305 310 308 310 310 310 320 330 334 336 339 344 345 342 340 332 325 313 305 302 297 291 288 289 293 294 298 296 298 289 274
293 295 323 323 315 321 334 339 340 343 348 349 345 347 348 345 342 336 317 305 296 295 296 304 296 300 291 295 294 295 292 281
292 321 327 332 338 346 348 345 348 356 355 352 353 352 353 349 346 343 340 330 313 305 293 291 300 300 297 288 291 286 287 286
276 337 352 2 357 351 346 346 355 359 357 357 354 353 351 353 348 350 350 345 334 318 310 293 280 299 307 293 288 286 289 293
317 12 6 357 348 346 349 356 1 357 359 359 358 355 348 352 359 1 9 18 360 347 329 313 292 295 299 313 309 291 288 287
311 350 356 347 346 351 358 4 356 355 359 1 1 0 359 359 10 19 17 19 17 19 22 37 25 341 340 325 316 303 278 286
309 356 347 346 348 356 3 359 358 0 3 4 2 3 6 7 15 35 24 22 29 26 29 48 13 5 329 4 9 338 283 260
89 350 350 346 351 1 358 356 358 360 0 4 9 10 11 10 29 23 21 18 19 23 24 25 36 41 36 49 40 355 178 106
282 351 344 348 351 355 358 358 357 356 359 359 7 9 7 11 9 10 4 1 10 11 23 33 33 36 45 51 53 85 97 109
13 346 350 353 352 352 354 355 357 6 358 353 353 358 4 2 3 5 1 6 10 13 13 16 31 44 38 63 75 80 87 87
348 348 350 352 350 353 351 355 360 4 355 5 14 11 9 8 6 12 17 14 8 7 11 13 35 56 67 59 75 77 77 78
326 349 344 349 354 358 357 359 3 358 7 19 19 14 13 20 25 24 17 10 3 2 4 21 69 64 63 73 62 57 55 58